Powrót do katalogu

STARLINK-2622

AktywnyŁącznośćVLEO
NORAD 48360·PAYLOAD·🇺🇸 United States

Wystrzelony May 4, 2021 z Cape Canaveral Space Force Station

Loading…

Następne Przeloty (najbliższe 24 godziny)

TLE

ŚwieżeSource: CelesTrak SupGP

Epoka: Sep 14, 2026, 19:57 UTC

1 48360C 21038H   26257.83173611  .00023114  00000+0  74337-3 0  2571
2 48360  53.1592 197.9303 0001437 102.5167 340.3963 15.31686161    14

Śledź STARLINK-2622 w czasie rzeczywistym z AllMySat

Download on the App Store